Location: Bakov nad Jizerou
(50.4784°N, 14.9394°E)
Time: 08:02:52
(UTC+00:00)

FALCON 9 DEB - Pass Details

Date: 16 June 2021
Orbit: 421 x 432 km, 53.0° (Epoch: 04 August)

Event Time Altitude Azimuth Distance (km) Brightness Sun altitude
Rises 21:18:04 0° 238° (WSW) 2,393 6.8 -12.7°
Reaches altitude 10° 21:20:11 10° 236° (SW) 1,527 5.8 -12.8°
Maximum altitude 21:23:34 64° 154° (SSE) 478 3.0 -13.1°
Drops below altitude 10° 21:26:58 10° 72° (ENE) 1,526 5.8 -13.3°
Sets 21:29:05 0° 70° (ENE) 2,392 6.9 -13.4°
